218P/LINEAR (2020)

Japanese version
Home page
Updated on March 7, 2020

---------------------------------------------------------------------

* Profile

* Orbital Elements

Epoch 2020 Sept. 28.0 TT = JDT 2459120.5
T 2020 Oct. 3.77803 TT                                  MPCW
q   1.1699042            (2000.0)            P               Q
n   0.18112293     Peri.   59.78621     -0.56256424     +0.82674684
a   3.0937634      Node   175.97571     -0.77393930     -0.52520296
e   0.6218508      Incl.    2.72550     -0.29075665     -0.20162220
P   5.44
From 500 observations 2003 Apr. 29-2015 Aug. 21, mean residual 0".7.

* Finding Charts

* Magnitudes Graph

        m1 = 14.5 + 5 log d + 14.0 log r(t - 15)

---------------------------------------------------------------------

The orbital elements are published on M.P.E.C. 2015-Q71.
The charts are made with StellaNavigator Ver.10 (AstroArts).
The magnitudes graphs are made with Comet for Windows.

---------------------------------------------------------------------

Copyright(C) Seiichi Yoshida (comet@aerith.net). All rights reserved.